Grand Rapids, MI

9:05 AM EDT on August 27, 2016 (GMT -0400)
Gerald R. Ford International

Weather History for KGRR - November, 2014

Change the Weather History Date:

Sunday, November 9, 2014

  Actual Average Record
Temperature  
Mean Temperature 39 °F 43 °F  
Max Temperature 46 °F 51 °F 73 °F (1931)
Min Temperature 31 °F 35 °F 16 °F (2003)
Degree Days  
Heating Degree Days 26 22  
Month to date heating degree days 205 186  
Since 1 July heating degree days 787 778  
Cooling Degree Days 0 0  
Month to date cooling degree days 0 0  
Year to date cooling degree days 611 699  
Moisture  
Dew Point 30 °F    
Average Humidity 66    
Maximum Humidity 82    
Minimum Humidity 49    
Precipitation  
Precipitation 0.01 in 0.12 in 2.53 in (1966)
Month to date precipitation 0.37 1.08  
Year to date precipitation 34.97 33.34  
Snow  
Snow 0.00 in 0.10 in 2.80 in (1957)
Month to date snowfall T 1.0  
Since 1 July snowfall T 1.5  
Since 1 September snowfall T 1.5  
Snow Depth 0.00 in    
Sea Level Pressure  
Sea Level Pressure 29.85 in    
Wind  
Wind Speed 10 mph (SSW)    
Max Wind Speed 21 mph    
Max Gust Speed 30 mph    
Visibility 10 miles    
Events Rain    
T = Trace of Precipitation, MM = Missing Value Source: NWS Daily Summary

Daily Weather History Graph

Daily Weather History Graph

Search for Another Location

Airport or City:

Trip Planner

Search our weather history database for the weather conditions in past years. The results will help you decide how hot, cold, wet, or windy it might be!

Date:

Astronomy

Nov. 09, 2014 Rise Set
Actual Time 7:26 AM EST 5:24 PM EST
Civil Twilight 6:56 AM EST 5:54 PM EST
Nautical Twilight 6:22 AM EST 6:28 PM EST
Astronomical Twilight 5:49 AM EST 7:01 PM EST
Moon 7:56 PM EST (11/9) 9:59 AM EST (11/9)
Length of Visible Light 10h 58m
Length of Day
9h 58m
Waning Gibbous, 91% of the Moon is Illuminated
Nov 9
Waning Gibbous
Nov 14
Last Quarter
Nov 22
New
Nov 29
First Quarter
Dec 6
Full

Hourly Weather History & Observations

Time (EST) Temp. Windchill Dew Point Humidity Pressure Visibility Wind Dir Wind Speed Gust Speed Precip Events Conditions
12:53 AM 34.0 °F 28.8 °F 27.0 °F 75% 29.91 in 10.0 mi SSW 5.8 mph - N/A   Mostly Cloudy
1:53 AM 33.1 °F 27.7 °F 28.0 °F 82% 29.90 in 10.0 mi South 5.8 mph - N/A   Overcast
2:53 AM 33.1 °F 25.5 °F 26.1 °F 75% 29.91 in 10.0 mi SSW 9.2 mph - N/A   Clear
3:53 AM 33.1 °F 27.7 °F 26.1 °F 75% 29.89 in 10.0 mi SSW 5.8 mph - N/A   Clear
4:53 AM 34.0 °F 27.2 °F 26.1 °F 73% 29.90 in 10.0 mi SSW 8.1 mph - N/A   Clear
5:53 AM 35.1 °F 27.4 °F 27.0 °F 72% 29.90 in 10.0 mi SSW 10.4 mph - N/A   Overcast
6:53 AM 36.0 °F 29.6 °F 28.0 °F 73% 29.90 in 10.0 mi SSW 8.1 mph - N/A   Overcast
7:53 AM 36.0 °F 29.6 °F 28.0 °F 73% 29.89 in 10.0 mi SSW 8.1 mph - N/A   Overcast
8:53 AM 37.9 °F 30.5 °F 28.9 °F 70% 29.89 in 10.0 mi SW 11.5 mph - N/A   Overcast
9:53 AM 41.0 °F 33.5 °F 32.0 °F 70% 29.86 in 10.0 mi SW 13.8 mph 20.7 mph N/A   Overcast
10:53 AM 42.1 °F 34.5 °F 32.0 °F 67% 29.85 in 10.0 mi South 15.0 mph - 0.00 in   Overcast
11:53 AM 44.1 °F 35.9 °F 32.0 °F 63% 29.82 in 10.0 mi SSW 19.6 mph 24.2 mph N/A   Overcast
12:53 PM 44.1 °F 36.8 °F 32.0 °F 63% 29.79 in 10.0 mi SW 16.1 mph 23.0 mph N/A   Overcast
1:53 PM 46.0 °F 39.6 °F 30.0 °F 54% 29.77 in 10.0 mi SSW 15.0 mph - N/A   Overcast
2:53 PM 46.0 °F 40.2 °F 28.9 °F 51% 29.77 in 10.0 mi SW 12.7 mph - N/A   Overcast
3:53 PM 46.0 °F 39.6 °F 28.9 °F 51% 29.78 in 10.0 mi SW 15.0 mph - N/A   Mostly Cloudy
4:53 PM 45.0 °F 39.3 °F 28.9 °F 53% 29.80 in 10.0 mi SW 11.5 mph - N/A   Mostly Cloudy
5:53 PM 43.0 °F 37.7 °F 30.0 °F 60% 29.81 in 10.0 mi SSW 9.2 mph - N/A   Mostly Cloudy
6:53 PM 44.1 °F 38.1 °F 30.0 °F 58% 29.81 in 10.0 mi SSW 11.5 mph - N/A   Mostly Cloudy
7:53 PM 43.0 °F 37.2 °F 30.0 °F 60% 29.83 in 10.0 mi SSW 10.4 mph - N/A   Mostly Cloudy
8:53 PM 44.1 °F 38.6 °F 30.9 °F 60% 29.83 in 10.0 mi SSW 10.4 mph - N/A   Mostly Cloudy
9:53 PM 43.0 °F 38.8 °F 32.0 °F 65% 29.83 in 10.0 mi SSW 6.9 mph - N/A   Overcast
10:53 PM 43.0 °F - 33.1 °F 68% 29.85 in 10.0 mi Calm Calm - 0.00 in Rain Light Rain
11:30 PM 42.1 °F - 36.0 °F 79% 29.84 in 8.0 mi Calm Calm - 0.00 in Rain Light Rain
11:53 PM 41.0 °F 39.0 °F 36.0 °F 82% 29.86 in 10.0 mi ENE 3.5 mph - 0.01 in Rain Light Rain